CDT,Max TemperatureF,Mean TemperatureF,Min TemperatureF,Max Dew PointF,MeanDew PointF,Min DewpointF,Max Humidity, Mean Humidity, Min Humidity, Max Sea Level PressureIn, Mean Sea Level PressureIn, Min Sea Level PressureIn, Max VisibilityMiles, Mean VisibilityMiles, Min VisibilityMiles, Max Wind SpeedMPH, Mean Wind SpeedMPH, Max Gust SpeedMPH,PrecipitationIn, CloudCover, Events, WindDirDegrees
2013-5-1,80,68,55,61,57,48,88,68,44,30.08,29.97,29.89,10,10,10,16,9,21,0.00,0,,128
2013-5-2,62,47,32,59,42,32,100,90,81,30.27,30.20,30.06,10,8,2,21,10,26,0.20,7,Rain-Snow,339
2013-5-3,37,34,32,36,33,32,100,98,93,30.25,30.06,29.91,10,4,0,18,13,24,0.48,8,Rain-Snow,315
2013-5-4,44,38,32,36,34,32,100,90,66,30.00,29.89,29.83,10,8,2,10,4,16,0.03,7,Rain-Snow,327
2013-5-5,53,42,32,46,41,32,100,86,67,30.08,30.04,29.99,10,9,0,14,6,17,0.00,6,Fog,320
2013-5-6,60,53,46,52,49,46,100,93,72,30.09,30.05,30.02,10,6,0,12,8,17,0.00,6,Fog,322
2013-5-7,71,56,42,55,49,43,100,72,41,30.10,30.05,30.00,10,7,0,7,1,,0.00,1,Fog,61
2013-5-8,77,65,53,61,54,50,94,73,50,30.10,30.00,29.92,10,10,5,13,6,17,0.04,2,Rain,133
2013-5-9,73,65,57,61,59,54,100,82,64,29.96,29.94,29.91,10,9,3,16,9,24,1.40,6,Rain-Thunderstorm,213
2013-5-10,64,57,50,59,55,50,100,88,68,30.06,29.98,29.91,10,9,3,12,7,,0.00,6,Thunderstorm,319
2013-5-11,69,56,42,54,44,36,100,70,34,30.21,30.13,30.06,10,7,0,20,4,24,0.00,3,Fog,324
2013-5-12,62,48,35,41,35,30,93,55,34,30.29,30.23,30.16,10,10,10,10,4,,0.00,2,,352
2013-5-13,78,62,46,55,47,39,81,60,39,30.18,30.12,30.04,10,10,10,16,8,24,0.00,1,,160
2013-5-14,86,73,60,54,51,48,68,49,27,30.05,30.01,29.95,10,10,10,22,12,29,0.00,0,,209
2013-5-15,77,68,60,64,58,50,100,76,56,30.00,29.96,29.88,10,10,5,18,11,23,0.17,3,Rain-Thunderstorm,181
2013-5-16,68,64,60,63,61,61,100,93,78,29.91,29.88,29.84,10,9,5,13,8,,0.00,6,,117
2013-5-17,78,68,59,64,61,59,100,82,54,29.95,29.91,29.87,10,8,1,7,5,,0.00,5,,131
2013-5-18,84,73,62,72,67,61,94,83,66,29.95,29.89,29.81,10,9,5,16,8,20,0.00,2,,140
2013-5-19,86,78,69,70,65,61,94,71,45,29.86,29.77,29.65,10,9,3,23,10,33,0.29,3,Rain-Thunderstorm,168
2013-5-20,77,68,59,70,63,59,100,89,74,29.84,29.79,29.72,10,9,2,22,10,37,0.39,7,Rain-Thunderstorm,137
2013-5-21,66,62,57,61,58,55,94,89,73,29.88,29.80,29.63,10,10,7,22,9,30,0.06,4,Rain-Thunderstorm,215
2013-5-22,69,61,53,59,55,54,100,80,60,29.96,29.86,29.78,10,9,4,17,8,21,0.00,3,,243
2013-5-23,69,60,51,57,54,52,100,78,60,30.18,30.08,29.96,10,10,10,9,4,,0.00,0,,9
2013-5-24,71,62,53,54,51,46,94,69,50,30.30,30.23,30.17,10,10,10,20,10,25,0.00,0,,108
2013-5-25,80,66,53,64,57,46,94,69,54,30.24,30.17,30.08,10,10,7,13,9,17,0.04,1,Rain-Thunderstorm,155
2013-5-26,80,71,62,64,62,61,94,73,54,30.14,30.07,30.00,10,10,10,21,9,26,0.00,2,,167
2013-5-27,80,72,64,68,64,59,94,74,57,30.00,29.90,29.80,10,10,10,24,12,34,0.00,2,Thunderstorm,169
2013-5-28,80,74,69,64,63,61,78,70,57,29.90,29.83,29.77,10,10,10,25,15,33,0.00,0,Thunderstorm,180
2013-5-29,80,74,68,64,63,63,88,71,54,29.90,29.85,29.77,10,10,10,23,13,29,0.00,2,,161
2013-5-30,80,70,60,68,63,59,100,85,61,29.86,29.79,29.73,10,9,1,26,13,44,3.66,6,Rain-Thunderstorm,159
2013-5-31,80,71,62,72,67,61,100,86,70,29.84,29.78,29.69,10,10,7,18,11,26,0.15,5,Rain-Thunderstorm,171